Flag for Switzerland Weather past 2 weeks in Köniz, Bern, Switzerland

Now
50 °F

Clear.


Feels Like: 50 °F
Forecast: 36 / 66 °F
Wind: 1 mph from North

Location: Bern / Belp

Current Time: Sep 23, 2014 at 10:32:44 AM

Latest Report: Sep 23, 2014 at 10:20 AM


Visibility: 5 mi

Pressure: 30.12 "Hg

Humidity: 76%

Dew point: 43 °F

Location of KönizLocation

Historic Weather in Köniz — Graph

°F

Köniz temperature yesterday

Maximum temperature yesterday: 63 °F (at 3:50 PM)
Minimum temperature yesterday: 46 °F (at 11:20 PM)
Average temperature yesterday: 56 °F

Past Weeks' High & Low Weather Summary

 TemperatureHumidityPressure
High81 °F (Sep 8, 2:50 PM)100% (Sep 8, 10:20 PM)30.15 "Hg (Sep 8, 10:20 PM)
Low39 °F (Sep 23, 7:20 AM)47% (Sep 16, 2:50 PM)29.86 "Hg (Sep 17, 2:50 PM)
Average60 °F83%30.02 "Hg
* Reported Sep 8 9:20 AM — Sep 23 9:20 AM, Köniz, Weather by CustomWeather, © 2014

Note: Actual official high and low records may vary slightly from our data, if they occured in-between our weather recording intervals... More about our weather records

Advertising

Köniz weather history for previous 24 hours

 ConditionsComfort  
Time TempWeatherWind HumidityBarometerVisibility
9:20 AM
Sep 23
46 °FClear.3 mph87%30.12 "Hg4 mi
8:50 AM45 °FClear.2 mph87%30.12 "Hg4 mi
8:20 AM41 °FPassing clouds.1 mph100%30.15 "Hg4 mi
7:50 AM39 °FClear.2 mph93%30.12 "Hg4 mi
7:20 AM39 °FChilly.1 mph100%30.12 "Hg3 mi
6:50 AM41 °FClear.2 mph93%30.12 "Hg4 mi
6:20 AM41 °FClear.No wind93%30.12 "Hg4 mi
5:50 AM41 °FClear.1 mph93%30.12 "Hg4 mi
5:20 AM41 °FQuite cool.1 mph93%30.12 "Hg4 mi
4:50 AM43 °FQuite cool.1 mph93%30.12 "Hg5 mi
4:20 AM41 °FQuite cool.2 mph100%30.12 "Hg4 mi
3:50 AM43 °FQuite cool.1 mph93%30.12 "Hg6 mi
3:20 AM45 °FQuite cool.2 mph87%30.12 "Hg6 mi
2:50 AM43 °FQuite cool.2 mph93%30.12 "Hg6 mi
2:20 AM43 °FClear.2 mph87%30.12 "Hg10 mi
1:50 AM46 °FPassing clouds.3 mph82%30.09 "HgN/A
1:20 AM43 °FClear.2 mph93%30.09 "Hg10 mi
12:50 AM45 °FClear.2 mph87%30.12 "Hg10 mi
12:20 AM46 °FClear.1 mph82%30.12 "Hg10 mi
11:50 PM
Sep 22
50 °FPassing clouds.3 mph71%30.12 "HgN/A
11:20 PM46 °FCool.1 mph87%30.12 "HgN/A
10:50 PM50 °FClear.2 mph67%30.12 "Hg10 mi
10:20 PM50 °FClear.2 mph71%30.12 "Hg10 mi
9:50 PM50 °FPassing clouds.2 mph82%30.15 "HgN/A
9:20 PM50 °FPassing clouds.2 mph82%30.15 "HgN/A
8:50 PM52 °FPassing clouds.2 mph77%30.15 "HgN/A
8:20 PM54 °FScattered clouds.5 mph67%30.15 "HgN/A
7:50 PM55 °FScattered clouds.5 mph63%30.15 "HgN/A
7:20 PM57 °FScattered clouds.8 mph63%30.12 "HgN/A
6:50 PM57 °FPassing clouds.2 mph63%30.12 "HgN/A
6:20 PM59 °FPassing clouds.7 mph55%30.09 "HgN/A
5:50 PM61 °FPartly sunny.6 mph55%30.09 "HgN/A
5:20 PM63 °FScattered clouds.5 mph52%30.07 "HgN/A
4:50 PM63 °FPassing clouds.5 mph56%30.07 "HgN/A
4:20 PM61 °FPassing clouds.5 mph63%30.07 "HgN/A
3:50 PM63 °FScattered clouds.3 mph56%30.09 "HgN/A
3:20 PM61 °FPartly sunny.3 mph59%30.09 "HgN/A
2:50 PM61 °FPartly sunny.8 mph59%30.09 "HgN/A
2:20 PM61 °FScattered clouds.7 mph59%30.09 "HgN/A
1:50 PM61 °FPassing clouds.8 mph63%30.09 "HgN/A
1:20 PM59 °FScattered clouds.7 mph63%30.12 "HgN/A
12:50 PM61 °FScattered clouds.3 mph63%30.12 "HgN/A
12:20 PM59 °FPassing clouds.5 mph63%30.12 "HgN/A
11:50 AM59 °FPassing clouds.7 mph63%30.12 "HgN/A
11:20 AM57 °FPartly sunny.3 mph72%30.12 "HgN/A
10:50 AM57 °FPartly sunny.2 mph77%30.15 "HgN/A
10:20 AM55 °FBroken clouds.1 mph77%30.12 "HgN/A
Weather by CustomWeather, © 2014

See weather overviewHow to use our weather pages